Location: Mentone
(34.5413°N, 85.5351°W)
Time: 21:27:55
(UTC-06:00)

A-11 Canister half - Visible Passes

Search period start: 22 November 2014 00:00
Search period end: 02 December 2014 00:00
Orbit: 1525 x 1685 km, 47.3° (Epoch: 21 November)

Date Brightness Start Highest point End Pass type
(mag) Time Alt. Az. Time Alt. Az. Time Alt. Az.
22 Nov 10.6 01:48:02 24° NE 01:48:02 24° NE 01:51:07 10° NE visible
22 Nov 9.5 03:46:21 44° NNW 03:47:14 44° NNW 03:56:28 10° NE visible
22 Nov 9.8 05:45:15 10° WNW 05:54:27 41° N 06:03:21 10° E visible
23 Nov 11.0 01:27:47 17° NE 01:27:47 17° NE 01:29:34 10° NE visible
23 Nov 9.5 03:26:06 45° N 03:26:06 45° N 03:34:54 10° NE visible
23 Nov 9.8 05:24:24 13° WNW 05:32:48 41° N 05:41:43 10° ENE visible
24 Nov 11.2 01:07:30 12° NE 01:07:30 12° NE 01:08:00 10° NE visible
24 Nov 9.7 03:05:49 43° N 03:05:49 43° N 03:13:19 10° NE visible
24 Nov 9.8 05:04:08 18° NW 05:11:10 40° N 05:20:04 10° ENE visible
25 Nov 10.0 02:45:32 37° NNE 02:45:32 37° NNE 02:51:45 10° NE visible
25 Nov 9.8 04:43:50 23° NW 04:49:31 40° N 04:58:26 10° ENE visible
26 Nov 10.3 02:25:14 31° NE 02:25:14 31° NE 02:30:11 10° NE visible
26 Nov 9.8 04:23:32 28° NW 04:27:51 40° N 04:36:48 10° ENE visible
27 Nov 10.6 02:04:55 25° NE 02:04:55 25° NE 02:08:36 10° NE visible
27 Nov 9.8 04:03:14 33° NNW 04:06:12 39° N 04:15:10 10° ENE visible
28 Nov 10.8 01:44:37 19° NE 01:44:37 19° NE 01:47:02 10° NE visible
28 Nov 9.7 03:42:55 37° NNW 03:44:33 39° N 03:53:32 10° ENE visible
28 Nov 9.4 05:41:30 10° NW 05:51:19 63° NNE 06:00:45 10° ESE visible
29 Nov 11.1 01:24:19 14° NE 01:24:19 14° NE 01:25:28 10° NE visible
29 Nov 9.7 03:22:37 39° N 03:22:53 39° N 03:31:53 10° ENE visible
29 Nov 9.4 05:20:56 14° NW 05:29:43 61° NNE 05:39:10 10° ESE visible
30 Nov 9.9 03:02:20 38° NNE 03:02:20 38° NNE 03:10:15 10° ENE visible
30 Nov 9.4 05:00:39 19° NW 05:08:07 59° NNE 05:17:34 10° ESE visible
01 Dec 10.1 02:42:04 35° NNE 02:42:04 35° NNE 02:48:37 10° ENE visible
01 Dec 9.4 04:40:22 25° NW 04:46:31 57° NNE 04:55:58 10° ESE visible
